Regional Weather Roundup
Issued by NWS

Home | Current Version | Previous Version | Graphics & Text | Print | Product List | Glossary Off
Versions: 1 2 3 4 5 6 7 8 9 10 11 12 13 14 15 16 17 18 19 20 21 22 23 24 25 26 27 28 29 30 31 32 33 34 35 36 37 38 39 40 41 42 43 44 45 46 47 48 49 50

000
ASUS43 KFSD 242010
RWRSD

WEATHER ROUNDUP FOR SOUTH DAKOTA
NATIONAL WEATHER SERVICE SIOUX FALLS SD
300 PM CDT SUN JUL 24 2016

NOTE: "FAIR" INDICATES FEW OR NO CLOUDS BELOW 12,000 FEET WITH NO
SIGNIFICANT WEATHER AND/OR OBSTRUCTIONS TO VISIBILITY.


SDZ001>005-009-010-012>017-242100-
NORTHWEST AND NORTH CENTRAL SOUTH DAKOTA

CITY           SKY/WX    TMP DP  RH WIND       PRES   REMARKS
BUFFALO          N/A     86  45  23 S7        30.04F
FAITH            N/A     84  44  24 N3        30.09F
MOBRIDGE       SUNNY     87  49  26 NW12      30.03F
$$

SDZ012>016-024>037-041>051-057-063-072>074-242100-
SOUTHWEST AND SOUTH CENTRAL SOUTH DAKOTA

CITY           SKY/WX    TMP DP  RH WIND       PRES   REMARKS
RAPID CTY ARPT MOSUNNY   85  48  27 VRB3      30.12F
PIERRE         MOSUNNY   82  52  35 S6        30.04F
CUSTER         MOSUNNY   76  42  29 VRB7G23   30.27R
ELLSWORTH AFB  MOSUNNY   84  47  28 VRB2      30.11F
PHILIP         MOSUNNY   83  55  38 E7        30.08F
PINE RIDGE     SUNNY     83  45  26 E12       30.13F
WINNER         FAIR      82  52  35 MISG      30.11S
$$

SDZ004>011-016>023-039-040-242100-
NORTHEAST SOUTH DAKOTA

CITY           SKY/WX    TMP DP  RH WIND       PRES   REMARKS
ABERDEEN       SUNNY     84  57  39 NW10      30.02S
WATERTOWN      CLOUDY    78  56  46 NW12      30.04R
BROOKINGS      CLOUDY    77  59  53 W10       30.05F
SISSETON         N/A     83  58  42 N17       29.97R
$$

SDZ017-020-022-023-036>040-048>070-242100-
SOUTHEAST SOUTH DAKOTA

CITY           SKY/WX    TMP DP  RH WIND       PRES   REMARKS
SIOUX FALLS    LGT RAIN  75  64  68 NW9       30.05F
HURON          CLOUDY    77  59  53 VRB6      30.05S
CHAMBERLAIN    CLOUDY    82  60  46 CALM      30.08F
MITCHELL       CLOUDY    77  63  61 W3        30.07F
YANKTON        CLOUDY    75  61  60 NW8       30.04R
$$

ABBREVIATIONS USED IN REMARKS
   TC - TEMPERATURE IN CELSIUS
  WCI - WIND CHILL INDEX
   HX - HEAT INDEX
  VSB - VISIBILITY





USA.gov is the U.S. government's official web portal to all federal, state and local government web resources and services.